Home > Weather > Barnstable > Past weeks

Flag for U.S.A. Weather for the Past 2 Weeks in Barnstable, Massachusetts, U.S.A.

Now
23 °F

Clear.


Feels Like: 14 °F
Forecast: 24 / 36 °F
Wind: 8 mph from Northwest

Location: Barnstable Municipal-Boardman Airport

Current Time: Feb 6, 2016 at 4:46:23 AM

Latest Report: Feb 6, 2016 at 3:56 AM


Visibility: 10 mi

Pressure: 30.30 "Hg

Humidity: 78%

Dew point: 17 °F

Location of BarnstableLocation

Historic Weather in Barnstable — Graph

°F

Barnstable Temperature Yesterday

Maximum temperature yesterday: 42 °F (at 5:56 AM)
Minimum temperature yesterday: 28 °F (at 10:56 PM)
Average temperature yesterday: 35 °F

High & Low Weather Summary for the Past Weeks

 TemperatureHumidityPressure
High55 °F (Feb 4, 11:03 AM)100% (Jan 23, 8:56 PM)30.41 "Hg (Jan 23, 8:56 PM)
Low20 °F (Jan 22, 3:56 AM)36% (Feb 2, 2:56 PM)29.33 "Hg (Jan 29, 12:03 PM)
Average37 °F76%29.95 "Hg
* Reported Jan 22 2:56 AM — Feb 6 2:56 AM, Barnstable, Weather by CustomWeather, © 2016

Note: Actual official high and low records may vary slightly from our data, if they occured in-between our weather recording intervals... More about our weather records

Advertising

Barnstable Weather History for the Previous 24 Hours

 ConditionsComfort  
Time TempWeatherWind HumidityBarometerVisibility
2:56 AM
Sat, Feb 6
25 °FClear.7 mph78%30.28 "Hg10 mi
1:56 AM28 °FClear.7 mph75%30.25 "Hg10 mi
12:56 AM28 °FClear.14 mph72%30.23 "Hg10 mi
11:56 PM
Fri, Feb 5
28 °FClear.13 mph72%30.22 "Hg10 mi
10:56 PM28 °FClear.13 mph72%30.19 "Hg10 mi
9:56 PM29 °FClear.15 mph69%30.15 "Hg10 mi
8:56 PM30 °FClear.20 mph66%30.12 "Hg10 mi
7:56 PM31 °FPassing clouds.13 mph76%30.08 "Hg10 mi
6:56 PM31 °FLight snow. Mostly cloudy.13 mph85%30.06 "Hg7 mi
6:00 PM30 °FLight snow. Ice fog.21 mph92%30.01 "Hg1 mi
3:56 PM32 °FSnow. Fog.18 mph96%29.82 "Hg0 mi
2:58 PM33 °FHeavy snow. Fog.22 mph96%29.82 "Hg0 mi
1:56 PM33 °FHeavy snow. Fog.18 mph96%29.85 "Hg0 mi
12:56 PM33 °FFog.18 mph92%29.83 "Hg1 mi
11:56 AM33 °FFog.23 mph92%29.82 "Hg1 mi
10:56 AM34 °FHeavy rain. Fog.24 mph92%29.83 "Hg2 mi
9:56 AM36 °FHeavy rain. Fog.23 mph89%29.89 "Hg2 mi
8:56 AM37 °FRain. Fog.22 mph93%29.93 "Hg3 mi
7:56 AM41 °FHeavy rain. Fog.14 mph93%29.96 "Hg2 mi
6:56 AM41 °FHeavy rain. Fog.16 mph93%29.90 "Hg3 mi
5:56 AM42 °FHeavy rain. Fog.15 mph92%29.92 "Hg4 mi
4:56 AM41 °FRain. Fog.8 mph93%29.92 "Hg5 mi
4:03 AM41 °FRain. Fog.13 mph93%29.95 "Hg6 mi
Weather by CustomWeather, © 2016

See weather overviewHow to use our weather pages